Tracking 31080 objects as of 20-Jul-2025
HD Live streaming from Space Station
objects crossing your sky now

ONEWEB-0431

Track ONEWEB-0431 now!
10-day predictions
ONEWEB-0431 is classified as:


NORAD ID: 51630
Int'l Code: 2022-012J
Perigee: 1,227.0 km
Apogee: 1,230.7 km
Inclination: 87.9 °
Period: 109.9 minutes
Semi major axis: 7599 km
RCS: Unknown
Launch date: February 10, 2022
Source: United Kingdom (UK)
Launch site: FRENCH GUIANA (FRGUI)
Your satellite tracking list
Your tracking list is empty




NASA's NSSDC Master Catalog

Two Line Element Set (TLE):
1 51630U 22012J   25200.44440504 -.00000572  00000-0 -16746-2 0  9998
2 51630  87.8814 102.6152 0002390  66.2354 293.9024 13.10371982165769
Source of the keplerian elements: AFSPC